[[{"header":{"parameterUnit":"m.s-1","parameterCategory":1,"la1":30.2991,"la2":30.254,"lo1":-89.0895,"lo2":-89.0444,"dy":0.0017,"dx":0.0017,"nx":28,"ny":28,"refTime":"2024-03-13T03:00:00:Z","depth":0,"parameterNumber":2,"parameterNumberName":"U-component_of_WINDS"},"data":[0,0,0,0,0,0,0,0,0,0,0,0,0,0,0,0,0,0,0,0,0,0,0,0,0,0,0,0,0,0,0,0,0,0,0,0,0,0,0,0,0,0,0,0,0,0,0,0,0,0,0,0,0,0,0,0,0,0,0.377,0.3771,0,0.3818,0.3818,0.3819,0.3826,0.3825,0.3825,0.3825,0.3871,0.3872,0.3874,0,0,0,0,0,0,0,0,0,0,0,0,0,0.3683,0.3684,0.377,0.3771,0.3772,0.3818,0.3818,0.3819,0.3826,0.3825,0.3825,0.3824,0.387,0.3872,0.3874,0,0,0,0,0,0,0,0,0,0,0,0,0,0.3724,0.3685,0.377,0.3781,0.3782,0.3817,0.3818,0.3819,0.3826,0.3825,0.3825,0.3824,0.387,0.3872,0.3874,0.3902,0,0,0.3882,0.3883,0,0,0,0,0,0,0,0,0.3722,0.3728,0.3779,0.378,0.3782,0.3815,0.3804,0.3847,0.3826,0.3809,0.3825,0.3824,0.3853,0.3856,0.3867,0.3904,0.3906,0.3882,0.3883,0.3885,0.3885,0,0,0,0,0,0,0,0.3719,0.3726,0.3789,0.3779,0.3781,0.3782,0.3787,0.3812,0.3834,0.3811,0.3811,0.3817,0.3853,0.3864,0.3868,0.3907,0.3882,0.3884,0.3886,0.3887,0.3967,0.3967,0,0,0,0,0,0,0.3715,0.3723,0.3787,0.379,0.375,0.3784,0.379,0.3805,0.3834,0.3837,0.3817,0.3817,0.386,0.3865,0.3869,0.3902,0.3884,0.3887,0.3888,0.3966,0.3967,0.3968,0,0,0,0,0,0,0.3713,0.372,0.3786,0.3757,0.3765,0.3786,0.3803,0.3806,0.3817,0.3839,0.3842,0.3825,0.386,0.3866,0.3893,0.3904,0.3888,0.389,0.3965,0.3966,0.3967,0.3968,0,0,0,0,0,0,0.371,0.372,0.3731,0.3757,0.3767,0.381,0.3804,0.3808,0.3822,0.3822,0.3847,0.385,0.386,0.389,0.3896,0.3907,0.3892,0.3964,0.3966,0.3967,0.3967,0.3969,0.3971,0,0,0,0,0,0.3707,0.373,0.3732,0.374,0.3782,0.381,0.3816,0.3827,0.3823,0.3834,0.3847,0.3849,0.3902,0.3892,0.3899,0.3911,0.3964,0.3965,0.3967,0.3967,0.3969,0.3971,0,0,0,0,0,0,0.3704,0.3733,0.3736,0.3768,0.3787,0.3812,0.3826,0.383,0.385,0.3849,0.3862,0.3867,0.3894,0.3905,0.3894,0.3938,0.3932,0.3935,0.393,0.3932,0.3934,0.393,0.3894,0,0,0,0,0,0.3707,0.3729,0.3753,0.3778,0.3788,0.3805,0.3818,0.3825,0.3845,0.3853,0.3868,0.3887,0.3907,0.392,0.394,0.3969,0.3974,0.3981,0.3982,0.3983,0.3986,0.4,0.4003,0.3972,0.3972,0.3972,0,0,0.3713,0.3732,0.3745,0.3778,0.3794,0.3814,0.3812,0.3835,0.385,0.3856,0.3883,0.3895,0.3916,0.3943,0.3956,0.3954,0.3995,0.3985,0.3986,0.3988,0.4002,0.4005,0.4007,0.3974,0.3973,0.3973,0,0,0.3736,0.3753,0.3775,0.379,0.3814,0.3825,0.383,0.3855,0.3863,0.389,0.3895,0.3912,0.3948,0.3962,0.3974,0.4,0.4002,0.4006,0.4014,0.4028,0.4031,0.4033,0.404,0.4043,0.4008,0.4008,0.4008,0,0.374,0.3773,0.3786,0.3808,0.3822,0.3829,0.3851,0.3865,0.3893,0.3902,0.3899,0.3942,0.3957,0.3987,0.3993,0.4003,0.4008,0.4003,0.4029,0.4032,0.4034,0.4041,0.4044,0.4008,0.4008,0.4008,0.4008,0,0.3777,0.3799,0.3814,0.3842,0.3857,0.3879,0.3894,0.3908,0.3913,0.3924,0.3951,0.3969,0.3992,0.4,0.4005,0.403,0.4028,0.4027,0.4021,0.4037,0.4044,0.4047,0.4009,0.4009,0.4009,0.4009,0,0,0.3798,0.3832,0.3837,0.3849,0.3875,0.3892,0.3913,0.3936,0.3947,0.3966,0.3983,0.4013,0.4012,0.4025,0.4032,0.4044,0.4062,0.4042,0.4042,0.4044,0.4088,0.4088,0.4091,0.4064,0.4064,0.4065,0.4086,0,0.3822,0.3862,0.3873,0.3906,0.3926,0.3932,0.395,0.3967,0.3978,0.3995,0.4007,0.4027,0.4025,0.4032,0.4045,0.4057,0.4071,0.4056,0.4078,0.4079,0.4072,0.4096,0.4096,0.4115,0.4089,0.409,0.409,0,0.3856,0.3876,0.391,0.3932,0.3941,0.3957,0.3979,0.3996,0.4014,0.4021,0.4035,0.4041,0.4062,0.4055,0.4084,0.4073,0.4083,0.409,0.4091,0.4093,0.4085,0.4097,0.4122,0.4124,0.4095,0.4095,0.4094,0,0.3866,0.3902,0.3927,0.3937,0.3963,0.3974,0.3986,0.4004,0.4017,0.4035,0.4043,0.4063,0.4074,0.4089,0.4099,0.4093,0.4126,0.412,0.4131,0.413,0.4137,0.4136,0.4163,0.4145,0.4145,0.4145,0.4144,0,0.3891,0.3912,0.3931,0.3947,0.3969,0.3982,0.4003,0.4015,0.4031,0.4047,0.4054,0.4069,0.4082,0.4099,0.4107,0.4128,0.4133,0.4138,0.414,0.4137,0.4137,0.4143,0.4142,0.4145,0.4145,0.4145,0.4145,0,0.3907,0.3921,0.3948,0.3971,0.3977,0.3993,0.4011,0.4026,0.4036,0.4057,0.4062,0.4079,0.4098,0.411,0.4135,0.4141,0.4163,0.4165,0.4157,0.4158,0.4167,0.4166,0.4199,0.4203,0.4183,0.4183,0.4183,0,0.3921,0.3937,0.3962,0.3974,0.3985,0.4004,0.4017,0.4029,0.4042,0.4064,0.4075,0.4095,0.4112,0.4143,0.4156,0.4175,0.4176,0.4186,0.4179,0.4175,0.4175,0.4173,0.4174,0.4187,0.4187,0.4188,0.4188,0,0.3945,0.3951,0.397,0.3991,0.4006,0.4023,0.404,0.4049,0.4063,0.4077,0.4098,0.4111,0.4136,0.4155,0.4175,0.4185,0.4188,0.419,0.4193,0.419,0.4184,0.4186,0.416,0.4189,0.4189,0.4189,0.4189,0.4189,0.396,0.3974,0.3993,0.4013,0.4027,0.4042,0.4056,0.4069,0.4086,0.4108,0.4114,0.4135,0.4151,0.4178,0.4189,0.4204,0.4203,0.4208,0.4209,0.421,0.4209,0.4182,0.4208,0.4208,0.4208,0.4208,0.4208,0,0.3983,0.3996,0.4014,0.4037,0.4053,0.4055,0.4074,0.4086,0.4105,0.412,0.4137,0.4159,0.4177,0.4192,0.4211,0.422,0.4222,0.4225,0.4224,0.4226,0.421,0.4205,0.4223,0.4223,0.4223,0.4223,0.4223,0.4223,0.3997,0.402,0.4028,0.4058,0.407,0.4091,0.4101,0.4114,0.4127,0.4152,0.4167,0.4177,0.4192,0.4211,0.4228,0.4232,0.4238,0.424,0.4243,0.4229,0.4227,0.4225,0.4221,0.4241,0.4241,0.4258,0.4258,0.4258]},{"header":{"parameterUnit":"m.s-1","parameterCategory":1,"la1":30.2991,"la2":30.254,"lo1":-89.0895,"lo2":-89.0444,"dy":0.0017,"dx":0.0017,"nx":28,"ny":28,"refTime":"2024-03-13T03:00:00:Z","depth":0,"parameterNumber":3,"parameterNumberName":"V-component_of_WINDS"},"data":[0,0,0,0,0,0,0,0,0,0,0,0,0,0,0,0,0,0,0,0,0,0,0,0,0,0,0,0,0,0,0,0,0,0,0,0,0,0,0,0,0,0,0,0,0,0,0,0,0,0,0,0,0,0,0,0,0,0,1.1466,1.1467,0,1.1556,1.1557,1.1558,1.1572,1.1571,1.157,1.157,1.1659,1.1662,1.1665,0,0,0,0,0,0,0,0,0,0,0,0,0,1.1301,1.1304,1.1466,1.1467,1.1468,1.1556,1.1557,1.1558,1.1572,1.1571,1.157,1.1569,1.1658,1.1662,1.1666,0,0,0,0,0,0,0,0,0,0,0,0,0,1.138,1.1305,1.1465,1.1485,1.1488,1.1556,1.1557,1.1559,1.1572,1.1571,1.157,1.1569,1.1657,1.1661,1.1666,1.1719,0,0,1.168,1.1682,0,0,0,0,0,0,0,0,1.1376,1.1386,1.1481,1.1484,1.1487,1.1552,1.1532,1.1612,1.1573,1.154,1.157,1.1568,1.1624,1.1631,1.1651,1.1723,1.1727,1.1681,1.1684,1.1686,1.1687,0,0,0,0,0,0,0,1.137,1.1382,1.1501,1.1483,1.1486,1.1489,1.1499,1.1547,1.1588,1.1543,1.1544,1.1555,1.1625,1.1646,1.1653,1.1728,1.1681,1.1685,1.1688,1.169,1.1846,1.1847,0,0,0,0,0,0,1.1362,1.1378,1.1498,1.1504,1.1428,1.1493,1.1504,1.1532,1.1587,1.1595,1.1556,1.1555,1.1639,1.1648,1.1656,1.1721,1.1686,1.169,1.1693,1.1845,1.1847,1.1848,0,0,0,0,0,0,1.1358,1.1372,1.1495,1.1441,1.1457,1.1497,1.1528,1.1534,1.1555,1.1597,1.1604,1.157,1.1638,1.165,1.1703,1.1724,1.1692,1.1696,1.1843,1.1845,1.1847,1.1851,0,0,0,0,0,0,1.1353,1.1371,1.1393,1.1442,1.146,1.1541,1.153,1.1537,1.1564,1.1564,1.1612,1.1619,1.1638,1.1696,1.1708,1.173,1.17,1.1842,1.1844,1.1847,1.1849,1.1853,1.1856,0,0,0,0,0,1.1347,1.139,1.1394,1.1408,1.1488,1.1543,1.1553,1.1575,1.1566,1.1587,1.1613,1.1617,1.172,1.1701,1.1715,1.1739,1.184,1.1843,1.1846,1.1848,1.1852,1.1856,0,0,0,0,0,0,1.1342,1.1397,1.1402,1.1462,1.1497,1.1545,1.1573,1.158,1.1618,1.1617,1.1642,1.1652,1.1704,1.1727,1.1705,1.1792,1.1779,1.1785,1.1775,1.178,1.1783,1.1777,1.1704,0,0,0,0,0,1.1348,1.1389,1.1434,1.1482,1.15,1.1533,1.1558,1.1572,1.1609,1.1625,1.1655,1.169,1.173,1.1756,1.1796,1.1852,1.1862,1.1875,1.1878,1.1881,1.1886,1.1916,1.1922,1.1858,1.1858,1.1858,0,0,1.136,1.1395,1.142,1.1482,1.1512,1.1552,1.1546,1.1589,1.1619,1.1631,1.1683,1.1706,1.1747,1.1802,1.1828,1.1823,1.1905,1.1885,1.1887,1.189,1.1919,1.1925,1.1931,1.186,1.186,1.1859,0,0,1.1404,1.1435,1.1478,1.1507,1.1552,1.1573,1.1583,1.163,1.1645,1.1698,1.1707,1.1742,1.1811,1.184,1.1863,1.1915,1.192,1.1927,1.1945,1.1974,1.1979,1.1983,1.2001,1.2007,1.1931,1.1931,1.1931,0,1.1413,1.1476,1.1499,1.1542,1.1568,1.1581,1.1623,1.165,1.1705,1.1723,1.1716,1.1802,1.183,1.1891,1.1903,1.1922,1.1934,1.1922,1.1976,1.1981,1.1986,1.2003,1.2009,1.1932,1.1932,1.1932,1.1932,0,1.1485,1.1528,1.1557,1.161,1.164,1.1682,1.171,1.1737,1.1748,1.1769,1.1821,1.1856,1.1902,1.1917,1.1928,1.1979,1.1974,1.1972,1.196,1.1992,1.2008,1.2015,1.1933,1.1932,1.1932,1.1932,0,0,1.153,1.1593,1.1603,1.1627,1.1676,1.1709,1.1751,1.1796,1.1818,1.1855,1.189,1.1947,1.1944,1.1971,1.1984,1.201,1.2047,1.2004,1.2005,1.201,1.2104,1.2105,1.2113,1.205,1.2051,1.2052,1.21,0,1.1578,1.1655,1.1676,1.174,1.1779,1.179,1.1827,1.186,1.188,1.1915,1.1937,1.1977,1.1971,1.1987,1.2013,1.2037,1.2066,1.2034,1.2082,1.2083,1.2071,1.2121,1.2124,1.2167,1.2107,1.2108,1.2108,0,1.1646,1.1684,1.1753,1.1795,1.1812,1.1845,1.1887,1.1921,1.1957,1.197,1.1999,1.201,1.2052,1.2037,1.2095,1.2073,1.2093,1.2107,1.211,1.2115,1.2098,1.2128,1.2182,1.2188,1.2119,1.2118,1.2117,0,1.1671,1.1739,1.1789,1.1808,1.1859,1.1881,1.1903,1.1939,1.1964,1.2,1.2017,1.2057,1.2079,1.2109,1.213,1.2117,1.2185,1.2172,1.2196,1.2196,1.2211,1.221,1.2269,1.2224,1.2224,1.2224,1.2223,0,1.1724,1.1765,1.18,1.1831,1.1877,1.1899,1.1943,1.1965,1.1996,1.203,1.2041,1.2072,1.2098,1.2132,1.2148,1.2193,1.2203,1.2213,1.2217,1.2213,1.2211,1.2227,1.2224,1.2225,1.2225,1.2225,1.2224,0,1.176,1.1785,1.184,1.1883,1.1894,1.1926,1.1962,1.1991,1.2011,1.2054,1.2065,1.2096,1.2136,1.216,1.2211,1.2221,1.2271,1.2273,1.2259,1.226,1.2283,1.228,1.2354,1.2364,1.2312,1.2313,1.2313,0,1.1792,1.1824,1.187,1.1894,1.1916,1.1954,1.198,1.2002,1.2028,1.2071,1.2094,1.2135,1.2169,1.2233,1.2259,1.2298,1.2301,1.2324,1.2307,1.2301,1.2301,1.2299,1.2301,1.2327,1.2328,1.2328,1.2328,0,1.1846,1.1857,1.1894,1.1935,1.1965,1.1998,1.203,1.2049,1.2076,1.2104,1.2146,1.2172,1.2224,1.2264,1.2304,1.2325,1.2331,1.2333,1.2341,1.2336,1.2327,1.2332,1.2267,1.2332,1.2331,1.2331,1.2331,1.2331,1.1881,1.191,1.1946,1.1986,1.2013,1.2043,1.2072,1.2095,1.213,1.2175,1.2185,1.2228,1.2262,1.2316,1.2338,1.2371,1.2367,1.2378,1.2381,1.2383,1.2384,1.2321,1.2379,1.2379,1.2378,1.2378,1.2378,0,1.1936,1.1959,1.1996,1.2041,1.2072,1.2075,1.211,1.2136,1.2174,1.2206,1.2239,1.2285,1.2324,1.2352,1.2391,1.2412,1.2416,1.2422,1.242,1.2425,1.2386,1.2375,1.2418,1.2418,1.2418,1.2418,1.2418,1.2418,1.1968,1.2016,1.203,1.209,1.2113,1.2156,1.2176,1.2203,1.2228,1.2279,1.2312,1.233,1.236,1.24,1.2435,1.2442,1.2456,1.2461,1.2469,1.2432,1.2428,1.2424,1.2414,1.2464,1.2464,1.2505,1.2506,1.2506]}]]